West Davis - northern half: Past 24 Hour Conditions

 

Hall Beach Airport

12:00 PM EST 28 November 2014
This table is a summary of hourly weather conditions for the past 24 hours.
Date / Time
(EST)
Wind(knots) Conditions Visibility(km) Pressure(kPa) Air tempC) Relative humidity(%) Dew pointC) Wind Chill
28 November 2014
12:00 NW 14 N/A N/A 100.0 -34 73 -37 -50
11:00 NW 14 Ice Fog 0.4 100.0 -34 73 -37 -49
10:00 NW 13 Light Snow 2 100.0 -32 75 -35 -47
9:00 NW 17 Light Snow 2 100.0 -31 76 -34 -47
8:00 NW 14 Light Snow 2 100.0 -30 76 -33 -46
7:00 NNW 14 Light Snow 2 100.1 -30 76 -33 -44
6:00 NW 13 Light Snow 2 100.1 -31 76 -34 -45
5:00 NNW 13 Light Snow 2 100.1 -30 77 -32 -44
4:00 NNW 11 N/A 2 100.1 -29 78 -31 -42
3:00 NNW 11 Light Snow 2 100.1 -29 78 -32 -42
2:00 NNW 12 Light Snow 2 100.1 -30 77 -33 -43
1:00 NNW 12 Light Snow 2 100.1 -30 77 -32 -43
0:00 NNW 14 Light Snow 2 100.1 -29 77 -32 -44
27 November 2014
23:00 NNW 12 Light Snow 3 100.1 -30 76 -33 -44
22:00 NNW 14 Light Snow 3 100.1 -30 76 -33 -45
21:00 NNW 12 Light Snow 3 100.2 -31 76 -34 -44
20:00 NNW 15 Light Snow 3 100.2 -29 77 -32 -44
19:00 NNW 14 Light Snow 2 100.2 -29 78 -32 -43
18:00 NNW 14 Light Snow 2 100.3 -29 78 -32 -43
17:00 NNW 13 Light Snow 2 100.3 -29 78 -31 -43
16:00 NNW 11 Light Snow 2 100.3 -29 78 -31 -42
15:00 N 10 Light Snow 6 100.3 -23 83 -25 -34
14:00 NNE 11 Light Snow 6 100.3 -24 82 -26 -35
13:00 NNE 11 Mostly Cloudy 11 100.2 -23 82 -25 -35
12:00 NNE 13 Mostly Cloudy 16 100.2 -23 82 -25 -35
 
Map of Arctic - Eastern Arctic marine weather areas Baker Lake Airport Chesterfield Inlet Airport Coral Harbour Airport Gjoa Haven Airport Kugaaruk Airport Rankin Inlet Airport Shepherd Bay Airport Whale Cove Airport Arctic Bay Brevoort Island Qikiqtarjuaq Airport Cape Dorset Airport Cape Dyer Cape Hooper Clyde Airport Grise Fiord Airport Hall Beach Airport Igloolik Airport Iqaluit Airport Longstaff Bluff Pangnirtung Airport Pond Inlet Airport Repulse Bay Airport Resolute Airport Resolution Island Rowley Island Airport Taloyoak Airport Wager Bay Akulivik Airport Ivujivik Airport Puvirnituq Airport Kangiqsujuaq Airport Kangirsuk Airport Quaqtaq Airport Tasiujaq Airport Cape Kakkiviak Cape Kiglapait Nain Airport Saglek Cape Mercy Kimmirut Airport Aupaluk Airport Salluit Airport Kangiqsualujjuaq Airport Fort Ross
Legend: buoyBuoy land stationLand Station